Location: Allonne
(49.4086°N, 2.1143°E)
Time: 23:17:08
(UTC+00:00)

ITUPSAT 1 - Visible Passes

Search period start: 06 December 2023 00:00
Search period end: 16 December 2023 00:00
Orbit: 697 x 707 km, 98.5° (Epoch: 06 December)

Date Brightness Start Highest point End Pass type
(mag) Time Alt. Az. Time Alt. Az. Time Alt. Az.
07 Dec ? 06:37:34 10° ENE 06:38:50 11° NE 06:40:06 10° NE visible
12 Dec ? 06:54:02 10° E 06:56:41 15° NE 06:59:19 10° NNE visible
14 Dec ? 06:42:47 10° ENE 06:44:33 12° NE 06:46:19 10° NNE visible
